User: anonymous   Login
Location: Ostrava
(49.8330°N, 18.2830°E)
Time: 21:47:03
(UTC+02:00)
Language:

Explorer 7 - Orbit

View from above orbital plane
View from above orbital plane
View from above satellite
View from above satellite

Ground track
Ground track

The orbit data is extracted from the following two-line orbital elements,

1 00022U 59009A   15117.79006866  .00002332  00000-0  20847-3 0  9998
2 00022 050.2847 258.1017 0148220 296.3192 062.2594 14.91827615944576
Epoch (UTC): 27 April 2015 18:57:41
Eccentricity: 0.0148220
inclination: 50.2847°
perigee height: 489 km
apogee height: 695 km
right ascension of ascending node: 258.1017°
argument of perigee: 296.3192°
revolutions per day: 14.91827615
mean anomaly at epoch: 62.2594°
orbit number at epoch: 94457

The dashed part of the orbit path shows where the satellite is in the earth's shadow,  

DLR